Time,TemperatureF,DewpointF,PressureIn,WindDirection,WindDirectionDegrees,WindSpeedMPH,WindSpeedGustMPH,Humidity,HourlyPrecipIn,Conditions,Clouds,dailyrainin,SoftwareType,DateUTC
2013-06-08 00:08:00,55.4,54.8,29.90,WNW,292,0.0,-999.0,98,-99.99,,,0.00,Acu-Link.com,2013-06-08 04:08:00,
2013-06-08 00:23:00,55.4,54.8,29.89,SSE,157,0.0,-999.0,98,-99.99,,,0.00,Acu-Link.com,2013-06-08 04:23:00,
2013-06-08 00:38:00,55.4,54.8,29.90,WNW,292,0.0,-999.0,98,-99.99,,,0.00,Acu-Link.com,2013-06-08 04:38:00,
2013-06-08 00:53:00,55.4,54.8,29.90,SW,225,0.0,-999.0,98,-99.99,,,0.00,Acu-Link.com,2013-06-08 04:53:00,
2013-06-08 01:08:00,55.4,54.8,29.90,South,180,0.0,-999.0,98,-99.99,,,0.00,Acu-Link.com,2013-06-08 05:08:00,
2013-06-08 01:23:00,55.4,54.8,29.90,West,270,0.0,-999.0,98,-99.99,,,0.00,Acu-Link.com,2013-06-08 05:23:00,
2013-06-08 01:38:00,55.4,54.8,29.90,NNW,337,0.0,-999.0,98,-99.99,,,0.00,Acu-Link.com,2013-06-08 05:38:00,
2013-06-08 01:54:00,55.4,54.8,29.90,West,270,0.0,-999.0,98,-99.99,,,0.00,Acu-Link.com,2013-06-08 05:54:00,
2013-06-08 02:09:00,55.4,54.8,29.91,North,0,0.0,-999.0,98,-99.99,,,0.00,Acu-Link.com,2013-06-08 06:09:00,
2013-06-08 02:24:00,55.4,54.8,29.90,WSW,247,0.0,-999.0,98,-99.99,,,0.00,Acu-Link.com,2013-06-08 06:24:00,
2013-06-08 02:39:00,55.4,54.8,29.90,SW,225,0.0,-999.0,98,-99.99,,,0.00,Acu-Link.com,2013-06-08 06:39:00,
2013-06-08 02:54:00,55.4,54.8,29.90,NE,45,0.0,-999.0,98,-99.99,,,0.00,Acu-Link.com,2013-06-08 06:54:00,
2013-06-08 03:09:00,55.4,54.8,29.90,West,270,0.0,-999.0,98,-99.99,,,0.00,Acu-Link.com,2013-06-08 07:09:00,
2013-06-08 03:24:00,55.4,54.8,29.90,ENE,67,0.0,-999.0,98,-99.99,,,0.00,Acu-Link.com,2013-06-08 07:24:00,
2013-06-08 03:39:00,55.4,54.8,29.90,NNW,337,0.0,-999.0,98,-99.99,,,0.00,Acu-Link.com,2013-06-08 07:39:00,
2013-06-08 03:54:00,55.4,54.8,29.90,WNW,292,0.0,-999.0,98,-99.99,,,0.00,Acu-Link.com,2013-06-08 07:54:00,
2013-06-08 04:09:00,55.4,54.8,29.90,North,0,0.0,-999.0,98,-99.99,,,1.52,Acu-Link.com,2013-06-08 08:09:00,
2013-06-08 04:24:00,55.4,54.8,29.90,North,0,0.0,-999.0,98,-99.99,,,1.52,Acu-Link.com,2013-06-08 08:24:00,
2013-06-08 04:39:00,55.4,54.8,29.90,West,270,0.0,-999.0,98,-99.99,,,1.52,Acu-Link.com,2013-06-08 08:39:00,
2013-06-08 04:54:00,55.4,54.8,29.90,SSW,202,0.0,-999.0,98,-99.99,,,1.52,Acu-Link.com,2013-06-08 08:54:00,
2013-06-08 05:09:00,55.4,54.8,29.91,South,180,0.0,-999.0,98,-99.99,,,1.52,Acu-Link.com,2013-06-08 09:09:00,
2013-06-08 05:24:00,55.4,54.8,29.91,ESE,112,0.0,-999.0,98,-99.99,,,1.52,Acu-Link.com,2013-06-08 09:24:00,
2013-06-08 05:39:00,55.4,54.8,29.92,ESE,112,0.0,-999.0,98,-99.99,,,1.52,Acu-Link.com,2013-06-08 09:39:00,
2013-06-08 05:54:00,55.4,54.8,29.93,ENE,67,0.0,-999.0,98,-99.99,,,1.52,Acu-Link.com,2013-06-08 09:54:00,
2013-06-08 06:10:00,55.4,54.8,29.93,ENE,67,0.0,-999.0,98,-99.99,,,1.52,Acu-Link.com,2013-06-08 10:10:00,
2013-06-08 06:25:00,55.4,55.1,29.93,ENE,67,0.0,-999.0,99,-99.99,,,1.52,Acu-Link.com,2013-06-08 10:25:00,
2013-06-08 06:40:00,55.4,55.1,29.95,ESE,112,0.0,-999.0,99,-99.99,,,1.52,Acu-Link.com,2013-06-08 10:40:00,
2013-06-08 06:55:00,55.4,55.1,29.95,NNE,22,0.0,-999.0,99,-99.99,,,1.52,Acu-Link.com,2013-06-08 10:55:00,
2013-06-08 07:10:00,55.4,55.1,29.95,WNW,292,0.0,-999.0,99,-99.99,,,1.52,Acu-Link.com,2013-06-08 11:10:00,
2013-06-08 07:26:00,55.4,54.3,29.96,WSW,247,0.0,-999.0,96,-99.99,,,1.52,Acu-Link.com,2013-06-08 11:26:00,
2013-06-08 07:56:00,59.0,57.0,29.97,West,270,0.0,-999.0,93,-99.99,,,1.52,Acu-Link.com,2013-06-08 11:56:00,
2013-06-08 08:11:00,59.0,56.4,29.97,NNE,22,1.6,-999.0,91,-99.99,,,1.52,Acu-Link.com,2013-06-08 12:11:00,
2013-06-08 08:27:00,59.0,56.1,29.97,WNW,292,0.0,-999.0,90,-99.99,,,1.52,Acu-Link.com,2013-06-08 12:27:00,
2013-06-08 08:42:00,59.0,55.4,29.98,WSW,247,0.0,-999.0,88,-99.99,,,1.52,Acu-Link.com,2013-06-08 12:42:00,
2013-06-08 08:57:00,60.8,56.9,29.98,NNE,22,0.0,-999.0,87,-99.99,,,1.52,Acu-Link.com,2013-06-08 12:57:00,
2013-06-08 09:12:00,60.8,55.6,29.98,NNE,22,1.1,-999.0,83,-99.99,,,1.52,Acu-Link.com,2013-06-08 13:12:00,
2013-06-08 09:28:00,62.6,56.7,29.98,ESE,112,2.0,-999.0,81,-99.99,,,1.52,Acu-Link.com,2013-06-08 13:28:00,
2013-06-08 09:43:00,62.6,55.6,29.99,WNW,292,0.0,-999.0,78,-99.99,,,1.52,Acu-Link.com,2013-06-08 13:43:00,
2013-06-08 09:58:00,64.4,56.7,29.99,SE,135,0.0,-999.0,76,-99.99,,,1.52,Acu-Link.com,2013-06-08 13:58:00,
2013-06-08 10:13:00,64.4,56.3,29.99,South,180,2.7,-999.0,75,-99.99,,,1.52,Acu-Link.com,2013-06-08 14:13:00,
2013-06-08 10:28:00,62.6,54.2,29.99,West,270,2.0,-999.0,74,-99.99,,,1.52,Acu-Link.com,2013-06-08 14:28:00,
2013-06-08 10:43:00,62.6,54.2,29.99,WSW,247,2.0,-999.0,74,-99.99,,,1.52,Acu-Link.com,2013-06-08 14:43:00,
2013-06-08 10:58:00,64.4,54.8,30.00,NNW,337,1.6,-999.0,71,-99.99,,,1.52,Acu-Link.com,2013-06-08 14:58:00,
2013-06-08 11:13:00,64.4,54.4,30.00,WNW,292,0.0,-999.0,70,-99.99,,,1.52,Acu-Link.com,2013-06-08 15:13:00,
2013-06-08 11:28:00,64.4,53.6,30.01,SE,135,0.0,-999.0,68,-99.99,,,1.52,Acu-Link.com,2013-06-08 15:28:00,
2013-06-08 11:43:00,66.2,54.5,30.02,WNW,292,0.0,-999.0,66,-99.99,,,1.52,Acu-Link.com,2013-06-08 15:43:00,
2013-06-08 11:59:00,66.2,53.7,30.01,ESE,112,0.0,-999.0,64,-99.99,,,1.52,Acu-Link.com,2013-06-08 15:59:00,
2013-06-08 12:14:00,64.4,52.0,30.02,NW,315,1.1,-999.0,64,-99.99,,,1.52,Acu-Link.com,2013-06-08 16:14:00,
2013-06-08 12:29:00,64.4,53.2,30.03,NW,315,1.1,-999.0,67,-99.99,,,1.52,Acu-Link.com,2013-06-08 16:29:00,
2013-06-08 12:44:00,64.4,54.0,30.03,West,270,0.0,-999.0,69,-99.99,,,1.52,Acu-Link.com,2013-06-08 16:44:00,
2013-06-08 13:00:00,64.4,53.2,30.03,East,90,2.0,-999.0,67,-99.99,,,1.52,Acu-Link.com,2013-06-08 17:00:00,
2013-06-08 13:15:00,68.0,55.8,30.03,WNW,292,2.0,-999.0,65,-99.99,,,1.52,Acu-Link.com,2013-06-08 17:15:00,
2013-06-08 13:30:00,64.4,54.4,30.02,WSW,247,1.1,-999.0,70,-99.99,,,1.52,Acu-Link.com,2013-06-08 17:30:00,
2013-06-08 13:45:00,64.4,54.0,30.02,NNE,22,1.1,-999.0,69,-99.99,,,1.52,Acu-Link.com,2013-06-08 17:45:00,
2013-06-08 14:01:00,64.4,53.6,30.01,WNW,292,1.6,-999.0,68,-99.99,,,1.52,Acu-Link.com,2013-06-08 18:01:00,
2013-06-08 14:16:00,66.2,54.1,30.01,SW,225,2.0,-999.0,65,-99.99,,,1.52,Acu-Link.com,2013-06-08 18:16:00,
2013-06-08 14:31:00,66.2,54.5,30.01,SSW,202,1.6,-999.0,66,-99.99,,,1.52,Acu-Link.com,2013-06-08 18:31:00,
2013-06-08 14:46:00,69.8,58.3,30.01,WSW,247,1.6,-999.0,67,-99.99,,,1.52,Acu-Link.com,2013-06-08 18:46:00,
2013-06-08 15:02:00,68.0,57.8,30.01,NW,315,1.6,-999.0,70,-99.99,,,1.52,Acu-Link.com,2013-06-08 19:02:00,
2013-06-08 15:17:00,68.0,57.0,30.02,SSE,157,0.0,-999.0,68,-99.99,,,1.52,Acu-Link.com,2013-06-08 19:17:00,
2013-06-08 15:32:00,68.0,58.2,30.01,NNW,337,2.0,-999.0,71,-99.99,,,1.52,Acu-Link.com,2013-06-08 19:32:00,
2013-06-08 15:47:00,71.6,57.9,30.01,East,90,1.6,-999.0,62,-99.99,,,1.52,Acu-Link.com,2013-06-08 19:47:00,
2013-06-08 16:02:00,71.6,58.8,30.01,NW,315,3.1,-999.0,64,-99.99,,,1.52,Acu-Link.com,2013-06-08 20:02:00,
2013-06-08 16:17:00,69.8,59.6,30.01,West,270,1.6,-999.0,70,-99.99,,,1.52,Acu-Link.com,2013-06-08 20:17:00,
2013-06-08 16:32:00,68.0,57.4,30.01,WNW,292,2.7,-999.0,69,-99.99,,,1.52,Acu-Link.com,2013-06-08 20:32:00,
2013-06-08 16:47:00,71.6,59.6,30.01,WNW,292,2.0,-999.0,66,-99.99,,,1.52,Acu-Link.com,2013-06-08 20:47:00,
2013-06-08 17:02:00,69.8,59.2,30.02,ENE,67,0.0,-999.0,69,-99.99,,,1.52,Acu-Link.com,2013-06-08 21:02:00,
2013-06-08 17:17:00,71.6,59.2,30.02,East,90,2.0,-999.0,65,-99.99,,,1.52,Acu-Link.com,2013-06-08 21:17:00,
2013-06-08 17:33:00,71.6,58.3,30.02,NW,315,1.6,-999.0,63,-99.99,,,1.52,Acu-Link.com,2013-06-08 21:33:00,
2013-06-08 17:48:00,71.6,60.0,30.02,ESE,112,1.6,-999.0,67,-99.99,,,1.52,Acu-Link.com,2013-06-08 21:48:00,
2013-06-08 18:03:00,71.6,60.0,30.03,West,270,1.6,-999.0,67,-99.99,,,1.52,Acu-Link.com,2013-06-08 22:03:00,
2013-06-08 18:18:00,69.8,58.8,30.03,NW,315,1.1,-999.0,68,-99.99,,,1.52,Acu-Link.com,2013-06-08 22:18:00,
2013-06-08 18:33:00,69.8,57.9,30.03,West,270,0.0,-999.0,66,-99.99,,,1.52,Acu-Link.com,2013-06-08 22:33:00,
2013-06-08 18:49:00,69.8,57.9,30.04,WNW,292,2.0,-999.0,66,-99.99,,,1.52,Acu-Link.com,2013-06-08 22:49:00,
2013-06-08 19:04:00,69.8,57.9,30.04,NE,45,0.0,-999.0,66,-99.99,,,1.52,Acu-Link.com,2013-06-08 23:04:00,
2013-06-08 19:19:00,69.8,57.9,30.04,NE,45,1.6,-999.0,66,-99.99,,,1.52,Acu-Link.com,2013-06-08 23:19:00,
2013-06-08 19:35:00,68.0,57.0,30.05,South,180,0.0,-999.0,68,-99.99,,,1.52,Acu-Link.com,2013-06-08 23:35:00,
2013-06-08 19:50:00,68.0,59.0,30.05,NE,45,0.0,-999.0,73,-99.99,,,1.52,Acu-Link.com,2013-06-08 23:50:00,
2013-06-08 20:05:00,64.4,56.3,30.05,NE,45,0.0,-999.0,75,-99.99,,,1.52,Acu-Link.com,2013-06-09 00:05:00,
2013-06-08 20:20:00,64.4,56.7,30.05,East,90,0.0,-999.0,76,-99.99,,,1.52,Acu-Link.com,2013-06-09 00:20:00,
2013-06-08 20:36:00,62.6,54.9,30.05,East,90,0.0,-999.0,76,-99.99,,,1.52,Acu-Link.com,2013-06-09 00:36:00,
2013-06-08 20:51:00,60.8,53.9,30.06,ENE,67,0.0,-999.0,78,-99.99,,,1.52,Acu-Link.com,2013-06-09 00:51:00,
2013-06-08 21:21:00,59.0,52.8,30.06,ENE,67,0.0,-999.0,80,-99.99,,,1.52,Acu-Link.com,2013-06-09 01:21:00,
2013-06-08 21:36:00,59.0,53.5,30.07,East,90,0.0,-999.0,82,-99.99,,,1.52,Acu-Link.com,2013-06-09 01:36:00,
2013-06-08 21:51:00,55.4,50.3,30.07,NNE,22,0.0,-999.0,83,-99.99,,,1.52,Acu-Link.com,2013-06-09 01:51:00,
2013-06-08 22:07:00,55.4,51.0,30.08,ESE,112,0.0,-999.0,85,-99.99,,,1.52,Acu-Link.com,2013-06-09 02:07:00,
2013-06-08 22:22:00,55.4,51.9,30.09,NE,45,0.0,-999.0,88,-99.99,,,1.76,Acu-Link.com,2013-06-09 02:22:00,
2013-06-08 22:37:00,55.4,52.8,30.09,North,0,0.0,-999.0,91,-99.99,,,1.76,Acu-Link.com,2013-06-09 02:37:00,
2013-06-08 22:52:00,53.6,51.6,30.10,SSE,157,0.0,-999.0,93,-99.99,,,1.76,Acu-Link.com,2013-06-09 02:52:00,
2013-06-08 23:08:00,53.6,51.3,30.10,ESE,112,0.0,-999.0,92,-99.99,,,1.76,Acu-Link.com,2013-06-09 03:08:00,
2013-06-08 23:23:00,53.6,52.2,30.10,ENE,67,0.0,-999.0,95,-99.99,,,1.76,Acu-Link.com,2013-06-09 03:23:00,
2013-06-08 23:38:00,53.6,52.2,30.10,ENE,67,0.0,-999.0,95,-99.99,,,1.76,Acu-Link.com,2013-06-09 03:38:00,
2013-06-08 23:54:00,53.6,52.5,30.11,ENE,67,0.0,-999.0,96,-99.99,,,1.76,Acu-Link.com,2013-06-09 03:54:00,